George, South Africa

1:57 AM SAST on May 25, 2017 (GMT +0200)
George

Weather History for FAGG - November, 2014

Change the Weather History Date:

Monday, November 10, 2014

  Actual Average Record
Temperature  
Mean Temperature 60 °F -  
Max Temperature 60 °F 70 °F 80 °F (1998)
Min Temperature 59 °F 54 °F 46 °F (2002)
Degree Days  
Heating Degree Days 6    
Growing Degree Days 10 (Base 50)    
Moisture  
Dew Point 57 °F    
Average Humidity 90    
Maximum Humidity 97    
Minimum Humidity 80    
Precipitation  
Precipitation 0.20 in - - ()
Sea Level Pressure  
Sea Level Pressure 30.05 in    
Wind  
Wind Speed 17 mph ()    
Max Wind Speed 24 mph    
Max Gust Speed 39 mph    
Visibility 4.0 miles    
Events Rain    
Averages and records for this station are not official NWS values.
T = Trace of Precipitation, MM = Missing Value Source: Averaged Metar Reports

Daily Weather History Graph

Daily Weather History Graph

Search for Another Location

Airport or City:

Trip Planner

Search our weather history database for the weather conditions in past years. The results will help you decide how hot, cold, wet, or windy it might be!

Date:

Astronomy

Nov. 10, 2014 Rise Set
Actual Time 5:22 AM SAST 7:07 PM SAST
Civil Twilight 4:54 AM SAST 7:34 PM SAST
Nautical Twilight 4:22 AM SAST 8:07 PM SAST
Astronomical Twilight 3:47 AM SAST 8:41 PM SAST
Moon 10:29 PM SAST (11/10) 8:14 AM SAST (11/10)
Length of Visible Light 14h 39m
Length of Day
13h 44m
Waning Gibbous, 87% of the Moon is Illuminated
Nov 10
Waning Gibbous
Nov 14
Last Quarter
Nov 22
New
Nov 29
First Quarter
Dec 6
Full

Hourly Weather History & Observations

Time (SAST) Temp. Dew Point Humidity Pressure Visibility Wind Dir Wind Speed Gust Speed Precip Events Conditions
5:00 AM 60 °F 59 °F 95% 30.01 in 2 mi ESE 15.0 mph - - Rain Light Rain
5:00 AM 60.8 °F 59.0 °F 94% 30.01 in 2.5 mi ESE 18.4 mph - N/A Rain Light Rain
7:00 AM 60.8 °F 59.0 °F 94% 30.06 in 1.4 mi ESE 15.0 mph - N/A Rain Light Rain
8:00 AM 60 °F 59 °F 97% 30.06 in 1 mi East 17.3 mph - - Rain Light Rain
8:00 AM 60.8 °F 59.0 °F 94% 30.06 in 1.4 mi East 16.1 mph - N/A Rain Light Rain
9:00 AM 60.8 °F 59.0 °F 94% 30.06 in 3.7 mi ESE 18.4 mph - N/A   Overcast
10:00 AM 60.8 °F 59.0 °F 94% 30.04 in 1.5 mi ESE 19.6 mph - N/A Rain Light Rain
11:00 AM 59 °F 58 °F 97% 30.07 in 1 mi ESE 24.2 mph - - Rain Light Rain
12:00 PM 59.0 °F 57.2 °F 94% 30.06 in 1.4 mi ESE 19.6 mph - N/A Rain Light Rain
1:00 PM 60.8 °F 57.2 °F 88% 30.06 in 1.7 mi ESE 23.0 mph - N/A Rain Light Rain
2:00 PM 60 °F 57 °F 88% 30.06 in 2 mi ESE 24.2 mph - - Rain Light Rain
2:00 PM 60.8 °F 57.2 °F 88% 30.06 in 2.2 mi ESE 24.2 mph 35.7 mph N/A Rain Light Rain
3:00 PM 60.8 °F 57.2 °F 88% 30.04 in 6.2 mi ESE 23.0 mph 36.8 mph N/A   Mostly Cloudy
4:00 PM 59.0 °F 55.4 °F 88% 30.04 in 6.2 mi East 24.2 mph 39.1 mph N/A   Mostly Cloudy
5:00 PM 60 °F 56 °F 81% 30.05 in 12 mi East 23.0 mph - -   Overcast
5:00 PM 60.8 °F 55.4 °F 82% 30.04 in 6.2 mi East 23.0 mph - N/A   Overcast
6:00 PM 60.8 °F 55.4 °F 82% 30.04 in 6.2 mi ESE 20.7 mph - N/A   Mostly Cloudy
8:00 PM 59 °F 54 °F 80% 30.07 in 12 mi East 16.1 mph - -   Mostly Cloudy
8:00 PM 59.0 °F 55.4 °F 88% 30.06 in 6.2 mi East 16.1 mph - N/A   Mostly Cloudy